Yakima, WA
on Saturday, February 2, 2013

Saturday
Previous Day Next Day
Daily Summary
 ActualAverageRecord
Temperature
Mean Temperature °F 34°F  
Max Temperature 53°F 43°F 58°F (1982)
Min Temperature 24°F 25°F -24°F (1950)
Degree Days
Heating Degree Days 26 31  
Month to date heating degree days 48 62  
Since 1 July heating degree days 3317 3780  
Cooling Degree Days 0 0  
Month to date cooling degree days 0 0  
Year to date cooling degree days 0 0  
Moisture
Dew Point 28°F   
Average Humidity 69    
Maximum Humidity 88    
Minimum Humidity 50    
Precipitation
Precipitation 0.00 in 0.03 in 0.43 in (2008)
Month to date precipitation 0.00 0.06  
Year to date precipitation 0.10 1.20  
Snow
Snow 0.00 in 0.10 in 3.40 in (2008)
Month to date snowfall 0.0 0.2  
Year to date snowfall 1.1 5.5  
Since 1 July snowfall 15.3 18.5  
Snow Depth 0.00 in   
Wind
Wind Speed 2 mph   
Max Wind Speed 24 mph   
Max Gust Speed 26 mph   
Visibility 10 miles   
Events     

Key: T is trace of precipitation, MM is missing value
Source: NWS Daily Summary
Time(PST)TemperatureDew PointHumidity Pressure Visibility Wind DirectionWind SpeedGust SpeedPrecipitationEvents Conditions
12:53 AM 30.0°F 25.0°F 82% 30.48 in 9.0 miles NW 6.9 mph - N/A   Clear
1:53 AM 28.9°F 25.0°F 85% 30.48 in 10.0 miles Calm Calm - N/A   Clear
2:53 AM 28.0°F 23.0°F 81% 30.49 in 10.0 miles West 4.6 mph - N/A   Clear
3:53 AM 27.0°F 23.0°F 85% 30.49 in 10.0 miles WNW 3.5 mph - N/A   Clear
4:53 AM 26.1°F 21.9°F 84% 30.49 in 10.0 miles West 5.8 mph - N/A   Clear
5:53 AM 27.0°F 23.0°F 85% 30.48 in 10.0 miles Calm Calm - N/A   Clear
6:53 AM 25.0°F 21.0°F 85% 30.48 in 10.0 miles Calm Calm - N/A   Clear
7:53 AM 26.1°F 21.0°F 81% 30.50 in 10.0 miles West 3.5 mph - N/A   Clear
8:53 AM 34.0°F 28.0°F 79% 30.50 in 10.0 miles Calm Calm - N/A   Clear
9:53 AM 39.0°F 30.0°F 70% 30.49 in 10.0 miles Calm Calm - N/A   Clear
10:53 AM 44.1°F 30.0°F 58% 30.48 in 10.0 miles West 4.6 mph - N/A   Clear
11:53 AM 48.0°F 30.9°F 52% 30.45 in 10.0 miles Calm Calm - N/A   Clear
12:53 PM 48.9°F 32.0°F 52% 30.42 in 10.0 miles Calm Calm - N/A   Clear
1:53 PM 52.0°F 33.1°F 49% 30.39 in 10.0 miles Calm Calm - N/A   Clear
2:53 PM 52.0°F 34.0°F 50% 30.37 in 10.0 miles SE 4.6 mph - N/A   Clear
3:53 PM 50.0°F 34.0°F 54% 30.36 in 10.0 miles SE 3.5 mph - N/A   Clear
4:53 PM 46.9°F 34.0°F 61% 30.35 in 10.0 miles Calm Calm - N/A   Clear
5:53 PM 42.1°F 32.0°F 67% 30.35 in 10.0 miles Calm Calm - N/A   Clear
6:53 PM 36.0°F 30.0°F 79% 30.35 in 10.0 miles Calm Calm - N/A   Clear
7:53 PM 33.1°F 28.0°F 82% 30.33 in 8.0 miles West 5.8 mph - N/A   Clear
8:53 PM 33.1°F 28.9°F 85% 30.32 in 10.0 miles WNW 4.6 mph - N/A   Clear
9:53 PM 33.1°F 28.9°F 85% 30.32 in 9.0 miles WSW 4.6 mph - N/A   Clear
10:53 PM 30.0°F 26.1°F 85% 30.29 in 8.0 miles NW 6.9 mph - N/A   Clear
11:53 PM 28.9°F 25.0°F 85% 30.29 in 8.0 miles Calm Calm - N/A   Clear
Moon Phase
Feb. 02 Feb. 03 Feb. 10 Feb. 17 Feb. 25
Sunrise:07:24 AM (PST) Moon Rise:No Moon Rise/
Sunset:05:08 PM (PST) Moon Set:10:09 AM (PST)2/2

Copyright © 2014 The Weather Underground, Inc.